Location: Guayaquil
(2.1667°S, 79.9000°W)
Time: 20:20:52
(UTC-05:00)

Amateur Radio Satellites - All Passes

Search period start: 23 September 2017 19:50
Search period end: 24 September 2017 19:50
Location: Guayaquil, 2.1667°S, 79.9000°W

Satellite Date Start Highest point End Downlink Frequencies (MHz)
Time Altitude Azimuth
CUBEBUG 2 23 Sep 20:11:36 20:15:04 26° 258° (WSW) 20:18:32 437.445
UWE-3 23 Sep 20:17:52 20:21:49 43° 258° (WSW) 20:25:49 435.000/436.395/437.385
FO-29 23 Sep 20:28:36 20:34:26 38° 105° (ESE) 20:40:57 435.910
HO-68 23 Sep 20:35:10 20:39:48 19° 254° (WSW) 20:44:26 435.675
STRAND 1 23 Sep 20:38:17 20:40:31 13° 282° (WNW) 20:42:44 437.568
Oscar 11 23 Sep 21:01:13 21:05:20 44° 258° (WSW) 21:09:28 .
AO-73 23 Sep 21:02:50 21:06:20 26° 258° (WSW) 21:09:53 145.935
DELFI C3 23 Sep 21:04:51 21:08:13 26° 79° (E) 21:11:34 145.870
ZACube-1 23 Sep 21:06:07 21:09:14 21° 258° (WSW) 21:12:24 437.345
UNISAT 6 23 Sep 21:20:37 21:24:48 33° 102° (ESE) 21:28:58 437.425
EO-88 23 Sep 21:33:56 21:37:15 33° 79° (E) 21:40:33 145.990 - 145.960
NO-84 23 Sep 21:37:57 21:38:55 11° 59° (ENE) 21:39:54 435.350 FM
TIGRISAT 23 Sep 21:43:49 21:48:28 62° 102° (ESE) 21:53:04 435.000
Max Valier Satellite 23 Sep 22:06:54 22:10:22 40° 259° (W) 22:13:50 145.860
FO-29 23 Sep 22:14:42 22:19:18 21° 280° (W) 22:24:19 435.910
PRISM 23 Sep 22:16:08 22:20:12 89° 101° (E) 22:24:18 437.425
LO-87 23 Sep 22:30:49 22:33:08 17° 79° (E) 22:35:27 145.935 - 145.965
AIST 2D 23 Sep 22:36:49 22:39:18 19° 102° (ESE) 22:41:48 435.315
YUBILEINY 23 Sep 22:42:10 22:48:56 25° 88° (E) 22:55:42 435.215
UNISAT 6 23 Sep 22:59:28 23:01:14 12° 282° (WNW) 23:02:59 437.425
NANOSAT C BR1 23 Sep 23:02:58 23:04:57 13° 103° (ESE) 23:06:55 145.865
ESTCUBE 1 23 Sep 23:10:14 23:14:34 45° 78° (ENE) 23:18:53 437.505/2401.250
NO-84 23 Sep 23:14:36 23:16:01 13° 236° (SW) 23:17:30 435.350 FM
DUCHIFAT 1 23 Sep 23:29:38 23:33:14 27° 102° (ESE) 23:36:51 145.980
SPROUT 23 Sep 23:37:38 23:40:19 16° 79° (ENE) 23:42:58 437.525
JUGNU 23 Sep 23:38:16 23:42:31 20° 18° (NNE) 23:46:45 437.505
VELOX 1 23 Sep 23:40:52 23:42:40 12° 78° (ENE) 23:44:28 145.980
POLYITAN 1 23 Sep 23:43:03 23:47:17 62° 102° (ESE) 23:51:31 437.675
EO-79 23 Sep 23:47:15 23:51:30 72° 103° (ESE) 23:55:45 145.935-145.965
SO-50 23 Sep 23:51:11 23:55:33 40° 68° (ENE) 23:59:59 436.795
M-CUBED/EXP-1 PRIME 23 Sep 23:53:53 23:55:47 14° 107° (ESE) 23:57:43 437.505
O/OREOS (USA 219) 23 Sep 23:58:14 23:59:25 11° 106° (ESE) 00:00:36 437.305
QB50P2 24 Sep 00:00:58 00:05:11 61° 282° (WNW) 00:09:24 145.880/145.840
LO-87 24 Sep 00:05:03 00:06:17 11° 258° (WSW) 00:07:30 145.935 - 145.965
BUGSAT 1 24 Sep 00:05:09 00:07:44 16° 103° (ESE) 00:10:19 437.445
PCSat 24 Sep 00:07:22 00:10:54 18° 71° (ENE) 00:14:26 145.827
NANOSAT C BR1 24 Sep 00:36:54 00:40:21 24° 281° (WNW) 00:43:49 145.865
YUBILEINY 24 Sep 00:37:16 00:45:17 41° 267° (W) 00:53:26 435.215
DX 1 24 Sep 00:47:35 00:50:42 19° 78° (ENE) 00:53:49 434.975-435.025
SRMSAT 24 Sep 01:05:07 01:06:33 11° 12° (NNE) 01:07:58 437.500
DUCHIFAT 1 24 Sep 01:07:17 01:08:38 11° 281° (WNW) 01:09:59 145.980
Gurwin Techsat 1B 24 Sep 01:09:20 01:13:51 29° 103° (ESE) 01:18:23 435.225
SPROUT 24 Sep 01:12:56 01:15:56 19° 258° (WSW) 01:18:56 437.525
VELOX 1 24 Sep 01:15:03 01:18:51 28° 257° (WSW) 01:22:37 145.980
Oscar 19 24 Sep 01:21:34 01:26:39 69° 103° (ESE) 01:31:45 437.125/150
50 SAT 24 Sep 01:24:06 01:27:25 67° 259° (WSW) 01:30:42 437.505
JUGNU 24 Sep 01:26:02 01:31:44 53° 21° (NNE) 01:37:25 437.505
M-CUBED/EXP-1 PRIME 24 Sep 01:28:42 01:30:00 12° 284° (WNW) 01:31:19 437.505
O/OREOS (USA 219) 24 Sep 01:34:40 01:38:34 29° 284° (WNW) 01:42:27 437.305
SO-50 24 Sep 01:35:03 01:35:51 10° 246° (WSW) 01:36:39 436.795
BUGSAT 1 24 Sep 01:39:40 01:42:48 20° 281° (WNW) 01:45:57 437.445
PCSat 24 Sep 01:49:21 01:54:00 30° 250° (WSW) 01:58:41 145.827
AO-7 24 Sep 02:07:42 02:12:41 17° 108° (ESE) 02:17:40 .
UKube-1 24 Sep 02:15:00 02:19:01 38° 257° (WSW) 02:23:01 .
DX 1 24 Sep 02:23:42 02:26:37 18° 257° (WSW) 02:29:30 434.975-435.025
ITAMSAT 1 24 Sep 02:30:03 02:32:15 13° 104° (ESE) 02:34:29 435.822/435.867
ITUPSAT 1 24 Sep 02:37:37 02:41:24 24° 78° (ENE) 02:45:12 437.325
RS-15 24 Sep 02:41:10 02:51:50 40° 111° (ESE) 03:02:49 29.354- 29.394
Gurwin Techsat 1B 24 Sep 02:49:59 02:53:31 18° 282° (WNW) 02:57:05 435.225
SRMSAT 24 Sep 02:51:37 02:56:22 25° 19° (NNE) 03:01:07 437.500
BEESAT 24 Sep 03:13:03 03:17:48 75° 79° (E) 03:22:32 436.000
JUGNU 24 Sep 03:15:02 03:20:45 55° 200° (SSW) 03:26:29 437.505
MOZHAYETS 4 24 Sep 03:41:29 03:45:50 43° 258° (WSW) 03:50:11
AO-7 24 Sep 03:56:52 04:04:57 60° 286° (WNW) 04:13:08 .
ITAMSAT 1 24 Sep 04:06:34 04:11:23 39° 283° (WNW) 04:16:16 435.822/435.867
CUBESAT XI-V 24 Sep 04:08:35 04:13:13 57° 79° (ENE) 04:17:49 437.345
DOVE 4 24 Sep 04:10:23 04:11:31 11° 104° (ESE) 04:12:41 437.250
Tancredo 1 24 Sep 04:14:00 04:16:39 80° 52° (NE) 04:19:21 437.200
ITUPSAT 1 24 Sep 04:15:50 04:18:57 17° 257° (WSW) 04:22:03 437.325
SRMSAT 24 Sep 04:39:46 04:45:40 66° 22° (NNE) 04:51:37 437.500
ISS 24 Sep 04:51:52 04:53:32 13° 55° (NE) 04:55:11 437.550
RS-15 24 Sep 04:53:14 05:03:50 39° 291° (WNW) 05:14:52 29.354- 29.394
JUGNU 24 Sep 05:05:28 05:10:04 23° 195° (SSW) 05:14:39 437.505
nSIGHT-1 24 Sep 05:28:51 05:32:02 60° 55° (NE) 05:35:14 .
XW-2C 24 Sep 05:29:09 05:32:05 22° 102° (ESE) 05:35:01 145.795 - 145.815
NUDT-PHONESAT 24 Sep 05:30:07 05:32:04 14° 102° (ESE) 05:34:00 437.300
KKS-1 24 Sep 05:35:13 05:39:14 34° 257° (WSW) 05:43:14 437.445
LilacSat-2 24 Sep 05:41:26 05:44:57 38° 101° (ESE) 05:48:29 437.200
DOVE 4 24 Sep 05:44:35 05:48:47 37° 280° (W) 05:53:16 437.250
CUTE-I 24 Sep 05:57:41 06:02:50 50° 103° (ESE) 06:08:01 437.470
KAITUO 1B 24 Sep 05:57:48 06:01:18 42° 101° (ESE) 06:04:48 145.475/437.950
STARS 24 Sep 05:57:54 06:02:10 52° 258° (WSW) 06:06:23 437.465
BEESAT 3 24 Sep 06:14:40 06:18:11 35° 248° (WSW) 06:21:39 437.485
CUTE 1.7 + AOD 2 24 Sep 06:15:14 06:17:16 13° 102° (ESE) 06:19:17 437.475
BEESAT 2 24 Sep 06:22:56 06:26:45 51° 68° (ENE) 06:30:32 435.950
ISS 24 Sep 06:27:26 06:29:47 18° 234° (SW) 06:32:09 437.550
XW-2D 24 Sep 06:28:53 06:32:17 33° 281° (W) 06:35:41 145.860 - 145.880
SRMSAT 24 Sep 06:29:13 06:34:54 46° 200° (SSW) 06:40:39 437.500
HO-68 24 Sep 06:38:30 06:45:13 43° 105° (ESE) 06:51:57 435.675
XW-2F 24 Sep 06:41:08 06:44:11 24° 281° (W) 06:47:15 145.980 - 146.000
XW-2B 24 Sep 06:41:40 06:44:38 22° 281° (W) 06:47:37 145.730 - 145.750
CUBEBUG 2 24 Sep 06:48:33 06:52:12 22° 102° (ESE) 06:55:48 437.445
UWE-3 24 Sep 06:55:52 06:57:57 13° 102° (ESE) 07:00:02 435.000/436.395/437.385
AO-85 24 Sep 06:56:06 07:00:58 51° 248° (WSW) 07:06:06 145.980
JUGNU 24 Sep 06:56:56 06:59:51 14° 185° (S) 07:02:48 437.505
NUDT-PHONESAT 24 Sep 07:03:25 07:05:40 16° 281° (W) 07:07:56 437.300
XW-2C 24 Sep 07:05:32 07:06:00 10° 281° (W) 07:06:28 145.795 - 145.815
XW-2A 24 Sep 07:08:28 07:11:12 23° 101° (ESE) 07:13:57 145.665 - 145.685
SEEDS 24 Sep 07:19:34 07:23:40 67° 101° (ESE) 07:27:48 437.485
STRAND 1 24 Sep 07:27:58 07:33:04 86° 77° (ENE) 07:38:09 437.568
AO-73 24 Sep 07:37:51 07:41:01 19° 102° (ESE) 07:44:10 145.935
Oscar 11 24 Sep 07:38:09 07:39:14 11° 103° (ESE) 07:40:19 .
ZACube-1 24 Sep 07:40:34 07:44:14 25° 102° (ESE) 07:47:51 437.345
AAUSAT CUBESAT 2 24 Sep 07:40:40 07:44:34 45° 102° (ESE) 07:48:30 437.432
CUTE 1.7 + AOD 2 24 Sep 07:49:30 07:52:48 23° 281° (W) 07:56:07 437.475
FO-29 24 Sep 08:03:41 08:07:46 17° 81° (E) 08:11:33 435.910
SRMSAT 24 Sep 08:20:06 08:24:31 21° 193° (SSW) 08:28:56 437.500
CUBEBUG 2 24 Sep 08:25:13 08:28:30 19° 281° (WNW) 08:31:47 437.445
HO-68 24 Sep 08:27:37 08:32:38 20° 284° (WNW) 08:37:40 435.675
UWE-3 24 Sep 08:30:05 08:34:07 30° 281° (WNW) 08:38:06 435.000/436.395/437.385
JUGNU 24 Sep 08:47:01 08:49:57 14° 175° (S) 08:52:53 437.505
DELFI C3 24 Sep 09:03:52 09:07:12 27° 102° (ESE) 09:10:34 145.870
Oscar 11 24 Sep 09:11:20 09:15:04 29° 281° (W) 09:18:48 .
AO-73 24 Sep 09:13:51 09:16:58 19° 282° (WNW) 09:20:04 145.935
NO-84 24 Sep 09:17:42 09:21:14 24° 123° (ESE) 09:24:40 435.350 FM
ZACube-1 24 Sep 09:17:44 09:20:14 15° 282° (WNW) 09:22:42 437.345
EO-88 24 Sep 09:24:51 09:27:51 25° 102° (ESE) 09:30:53 145.990 - 145.960
UNISAT 6 24 Sep 09:32:42 09:36:42 41° 79° (ENE) 09:40:45 437.425
FO-29 24 Sep 09:46:32 09:52:43 39° 255° (WSW) 09:58:14 435.910
TIGRISAT 24 Sep 09:55:57 10:00:12 84° 79° (ENE) 10:04:28 435.000
Max Valier Satellite 24 Sep 09:58:41 10:02:17 51° 281° (WNW) 10:05:54 145.860
SRMSAT 24 Sep 10:11:42 10:14:37 14° 183° (S) 10:17:31 437.500
PRISM 24 Sep 10:17:30 10:21:40 86° 78° (ENE) 10:25:46 437.425
LO-87 24 Sep 10:20:16 10:21:53 13° 102° (ESE) 10:23:30 145.935 - 145.965
JUGNU 24 Sep 10:35:10 10:39:47 23° 166° (SSE) 10:44:26 437.505
NO-84 24 Sep 10:55:29 10:58:29 18° 301° (WNW) 11:01:25 435.350 FM
NANOSAT C BR1 24 Sep 11:07:18 11:09:21 13° 79° (ENE) 11:11:24 145.865
YUBILEINY 24 Sep 11:12:45 11:21:11 51° 93° (E) 11:29:29 435.215
ESTCUBE 1 24 Sep 11:25:09 11:29:36 81° 101° (E) 11:34:05 437.505/2401.250
DUCHIFAT 1 24 Sep 11:33:46 11:37:21 28° 79° (ENE) 11:40:55 145.980
SPROUT 24 Sep 11:44:54 11:48:20 23° 102° (ESE) 11:51:46 437.525
POLYITAN 1 24 Sep 11:48:07 11:52:17 67° 79° (E) 11:56:26 437.675
M-CUBED/EXP-1 PRIME 24 Sep 11:50:57 11:54:02 18° 76° (ENE) 11:57:03 437.505
VELOX 1 24 Sep 11:51:54 11:55:05 20° 103° (ESE) 11:58:18 145.980
EO-79 24 Sep 11:52:10 11:56:21 78° 78° (ENE) 12:00:31 145.935-145.965
LO-87 24 Sep 11:52:38 11:55:01 17° 281° (W) 11:57:25 145.935 - 145.965
AIST 2D 24 Sep 11:54:17 11:56:53 19° 259° (WSW) 11:59:29 435.315
SRMSAT 24 Sep 12:01:30 12:04:53 15° 173° (S) 12:08:15 437.500
SO-50 24 Sep 12:02:40 12:07:15 88° 296° (WNW) 12:11:44 436.795
QB50P2 24 Sep 12:06:08 12:10:14 55° 258° (WSW) 12:14:20 145.880/145.840
BUGSAT 1 24 Sep 12:07:24 12:09:31 14° 79° (ENE) 12:11:38 437.445
O/OREOS (USA 219) 24 Sep 12:08:36 12:11:36 17° 76° (ENE) 12:14:36 437.305
JUGNU 24 Sep 12:23:19 12:29:08 53° 160° (SSE) 12:34:59 437.505
PCSat 24 Sep 12:40:31 12:45:52 66° 109° (ESE) 12:51:13 145.827
NANOSAT C BR1 24 Sep 12:41:32 12:44:47 22° 258° (WSW) 12:48:03 145.865
UKube-1 24 Sep 12:50:48 12:52:38 12° 103° (ESE) 12:54:27 .
DX 1 24 Sep 12:57:30 13:01:15 29° 103° (ESE) 13:05:02 434.975-435.025
50 SAT 24 Sep 13:05:59 13:09:13 57° 102° (ESE) 13:12:30 437.505
YUBILEINY 24 Sep 13:11:45 13:17:30 19° 272° (W) 13:23:16 435.215
DUCHIFAT 1 24 Sep 13:12:09 13:12:43 10° 257° (WSW) 13:13:16 145.980
SPROUT 24 Sep 13:21:45 13:23:58 14° 281° (WNW) 13:26:11 437.525
M-CUBED/EXP-1 PRIME 24 Sep 13:24:30 13:28:10 23° 253° (WSW) 13:31:43 437.505
VELOX 1 24 Sep 13:28:21 13:31:15 18° 282° (WNW) 13:34:12 145.980
BUGSAT 1 24 Sep 13:41:45 13:44:37 19° 258° (WSW) 13:47:29 437.445
Gurwin Techsat 1B 24 Sep 13:45:53 13:51:13 76° 77° (ENE) 13:56:30 435.225
O/OREOS (USA 219) 24 Sep 13:47:18 13:50:44 21° 255° (WSW) 13:54:09 437.305
SRMSAT 24 Sep 13:49:47 13:54:48 27° 164° (SSE) 13:59:48 437.500
Oscar 19 24 Sep 13:54:10 13:59:10 51° 257° (WSW) 14:04:12 437.125/150
JUGNU 24 Sep 14:12:20 14:18:13 56° 339° (NNW) 14:24:06 437.505
MOZHAYETS 4 24 Sep 14:23:51 14:26:44 16° 103° (ESE) 14:29:35
UKube-1 24 Sep 14:24:46 14:28:21 26° 282° (WNW) 14:31:58 .
RS-15 24 Sep 14:27:06 14:36:18 29° 68° (ENE) 14:45:09 29.354- 29.394
AO-7 24 Sep 14:31:00 14:37:44 27° 74° (ENE) 14:44:25 .
DX 1 24 Sep 14:35:49 14:37:11 11° 282° (WNW) 14:38:32 434.975-435.025
ITUPSAT 1 24 Sep 15:00:04 15:04:43 52° 103° (ESE) 15:09:23 437.325
ITAMSAT 1 24 Sep 15:01:35 15:06:05 30° 78° (ENE) 15:10:32 435.822/435.867
Tancredo 1 24 Sep 15:32:43 15:35:13 35° 126° (SE) 15:37:43 437.200
BEESAT 24 Sep 15:36:06 15:40:42 49° 282° (WNW) 15:45:19 436.000
SRMSAT 24 Sep 15:38:17 15:44:14 66° 159° (SSE) 15:50:10 437.500
MOZHAYETS 4 24 Sep 15:59:58 16:03:36 23° 281° (WNW) 16:07:13
JUGNU 24 Sep 16:02:56 16:07:28 22° 342° (NNW) 16:11:58 437.505
KKS-1 24 Sep 16:13:26 16:16:22 17° 103° (ESE) 16:19:17 437.445
AO-7 24 Sep 16:22:29 16:30:08 41° 253° (WSW) 16:37:47 .
ISS 24 Sep 16:24:59 16:26:27 12° 127° (SE) 16:27:56 437.550
CUBESAT XI-V 24 Sep 16:27:56 16:32:29 72° 281° (WNW) 16:37:03 437.345
DOVE 4 24 Sep 16:28:13 16:31:32 19° 80° (E) 16:34:42 437.250
STARS 24 Sep 16:37:06 16:37:52 10° 103° (ESE) 16:38:37 437.465
RS-15 24 Sep 16:37:38 16:48:13 48° 249° (WSW) 16:58:32 29.354- 29.394
ITAMSAT 1 24 Sep 16:42:05 16:45:14 16° 256° (WSW) 16:48:24 435.822/435.867
nSIGHT-1 24 Sep 17:00:47 17:03:55 52° 126° (SE) 17:07:03 .
XW-2C 24 Sep 17:22:08 17:24:31 16° 79° (E) 17:26:54 145.795 - 145.815
SRMSAT 24 Sep 17:27:47 17:33:27 45° 339° (NNW) 17:39:06 437.500
AO-85 24 Sep 17:30:13 17:32:56 17° 114° (ESE) 17:35:33 145.980
LilacSat-2 24 Sep 17:34:45 17:38:05 28° 79° (E) 17:41:24 437.200
KAITUO 1B 24 Sep 17:48:58 17:52:16 28° 79° (E) 17:55:32 145.475/437.950
KKS-1 24 Sep 17:49:17 17:52:37 21° 282° (WNW) 17:55:59 437.445
ISS 24 Sep 18:00:21 18:02:44 19° 305° (NW) 18:05:08 437.550
BEESAT 3 24 Sep 18:04:57 18:08:22 29° 292° (WNW) 18:11:49 437.485
DOVE 4 24 Sep 18:05:17 18:08:57 22° 256° (WSW) 18:12:28 437.250
STARS 24 Sep 18:09:56 18:13:53 33° 282° (WNW) 18:17:52 437.465
BEESAT 2 24 Sep 18:14:25 18:18:18 70° 111° (ESE) 18:22:13 435.950
CUTE 1.7 + AOD 2 24 Sep 18:19:51 18:22:21 15° 79° (E) 18:24:48 437.475
XW-2D 24 Sep 18:20:58 18:24:40 49° 259° (W) 18:28:22 145.860 - 145.880
STRAND 1 24 Sep 18:25:05 18:27:51 15° 104° (ESE) 18:30:38 437.568
HO-68 24 Sep 18:29:21 18:35:35 33° 76° (ENE) 18:41:47 435.675
XW-2F 24 Sep 18:32:36 18:36:07 36° 259° (WSW) 18:39:38 145.980 - 146.000
XW-2B 24 Sep 18:33:35 18:37:02 33° 258° (WSW) 18:40:29 145.730 - 145.750
CUTE-I 24 Sep 18:35:48 18:41:04 62° 257° (WSW) 18:46:18 437.470
XW-2A 24 Sep 18:51:48 18:52:26 10° 79° (E) 18:53:03 145.665 - 145.685
NUDT-PHONESAT 24 Sep 18:52:35 18:55:40 24° 258° (WSW) 18:58:45 437.300
XW-2C 24 Sep 18:56:09 18:58:25 15° 258° (WSW) 19:00:41 145.795 - 145.815
CUBEBUG 2 24 Sep 18:59:44 19:03:08 25° 79° (ENE) 19:06:33 437.445
UWE-3 24 Sep 19:05:22 19:07:37 14° 78° (ENE) 19:09:51 435.000/436.395/437.385
AO-85 24 Sep 19:10:19 19:13:04 17° 290° (WNW) 19:15:44 145.980
SRMSAT 24 Sep 19:19:00 19:22:55 18° 343° (NNW) 19:26:48 437.500
SEEDS 24 Sep 19:23:25 19:27:41 72° 78° (ENE) 19:31:54 437.485
FO-29 24 Sep 19:39:24 19:40:01 10° 108° (ESE) 19:40:39 435.910
AAUSAT CUBESAT 2 24 Sep 19:42:49 19:46:51 46° 79° (E) 19:50:50 437.432
Oscar 11 24 Sep 19:44:39 19:46:42 13° 79° (E) 19:48:45 .
